Location: Unspecified
(33.9239°N, 118.0544°W)
Time: 20:05:45
(UTC-07:00)

Resurs 1-4 Rocket - Visible Passes

Search period start: 28 August 2015 00:00
Search period end: 07 September 2015 00:00
Orbit: 799 x 815 km, 98.4° (Epoch: 27 August)

Date Brightness Start Highest point End Pass type
(mag) Time Alt. Az. Time Alt. Az. Time Alt. Az.
28 Aug 3.0 03:39:57 10° NNE 03:44:54 41° E 03:45:38 39° ESE visible
28 Aug 3.5 05:20:38 10° NNW 05:24:31 20° WNW 05:26:43 16° W visible
29 Aug 3.9 03:16:07 10° NE 03:20:14 24° E 03:20:45 24° ESE visible
29 Aug 2.8 04:55:25 10° N 05:00:11 34° WNW 05:01:50 28° WSW visible
30 Aug 4.6 02:53:10 10° ENE 02:55:27 13° E 02:55:53 13° E visible
30 Aug 2.1 04:30:35 10° N 04:35:47 60° WNW 04:36:57 48° WSW visible
31 Aug 2.1 04:06:03 10° NNE 04:11:20 78° E 04:12:05 65° SSE visible
31 Aug 4.0 05:49:00 10° NW 05:50:38 11° WNW 05:51:56 10° W visible
01 Sep 2.9 03:41:46 10° NNE 03:46:47 44° E 03:47:12 43° ESE visible
01 Sep 3.5 05:22:36 10° NNW 05:26:22 20° WNW 05:28:17 16° W visible
02 Sep 3.9 03:17:53 10° NE 03:22:08 25° E 03:22:19 25° E visible
02 Sep 2.9 04:57:20 10° N 05:02:03 33° WNW 05:03:24 29° W visible
03 Sep 4.6 02:54:47 10° ENE 02:57:21 14° E 02:57:26 14° E visible
03 Sep 2.2 04:32:28 10° N 04:37:40 57° WNW 04:38:31 51° WSW visible
04 Sep 2.0 04:07:54 10° NNE 04:13:12 82° ESE 04:13:38 75° SSE visible
04 Sep 4.0 05:51:19 10° NW 05:52:28 10° WNW 05:53:17 10° WNW visible
05 Sep 2.9 03:43:36 10° NNE 03:48:40 46° E 03:48:45 46° ESE visible
05 Sep 3.6 05:24:34 10° NNW 05:28:14 19° WNW 05:29:49 16° W visible
06 Sep 3.8 03:19:40 10° NE 03:23:52 26° E 03:23:52 26° E visible
06 Sep 2.9 04:59:15 10° N 05:03:54 31° WNW 05:04:56 29° W visible
